Regional Weather Roundup
Issued by NWS

Home | Current Version | Previous Version | Text Only | Print | Product List | Glossary Off
Versions: 1 2 3 4 5 6 7 8 9 10 11 12 13 14 15 16 17 18 19 20 21 22 23 24 25 26 27 28 29 30 31 32 33 34 35 36 37 38 39 40 41 42 43 44 45 46 47 48 49 50

000
ASUS44 KMEG 302310
RWRTN
TENNESSEE HOURLY STATE WEATHER ROUNDUP
NATIONAL WEATHER SERVICE MEMPHIS TN
600 PM CDT SAT APR 30 2016

TNZ002-004-019-021-049-052-054-088>092-010000-
WEST TENNESSEE

CITY           SKY/WX    TMP DP  RH WIND       PRES   REMARKS
MEMPHIS INTL   MOSUNNY   76  63  64 SW6       29.80R
NWS MEMPHIS      N/A     76 N/A N/A MISG        N/A
JACKSON        PTSUNNY   72  63  73 S5        29.83R
DYERSBURG      SUNNY     73  61  64 SE7         N/A
UNION CITY     MOSUNNY   73  64  73 SE12      29.81S
LEXINGTON      SUNNY     70  64  83 S3        29.82R
$$

TNZ008-025-027-028-033-062-065-066-010000-
NORTH MIDDLE TENNESSEE

CITY           SKY/WX    TMP DP  RH WIND       PRES   REMARKS
NASHVILLE      LGT RAIN  70  66  87 SE7       29.88S
CLARKSVILLE    CLOUDY    70  64  81 E3        29.84F
SMYRNA         LGT RAIN  71  68  90 CALM      29.89S
COOKEVILLE     PTSUNNY   75  70  83 CALM      29.90R
CROSSVILLE     RAIN      72  62  71 CALM      29.94S
$$

TNZ061-075-076-078-094-096-097-010000-
SOUTH MIDDLE TENNESSEE

CITY           SKY/WX    TMP DP  RH WIND       PRES   REMARKS
FAYETTEVILLE   PTSUNNY   68  64  88 W8        29.89R FOG
TULLAHOMA      PTSUNNY   70  70 100 VRB5      29.90F
WINCHESTER     MOSUNNY   72  66  83 SE3       29.89F
MCMINNVILLE    PTSUNNY   73  66  78 CALM      29.91S
COLUMBIA       SUNNY    N/A N/A N/A SE6       29.84F
$$

TNZ017-018-042-046-047-010000-
NORTHEAST TENNESSEE

CITY           SKY/WX    TMP DP  RH WIND       PRES   REMARKS
TRI CITIES     CLOUDY    69  54  58 NW6       30.02R
$$

TNZ012-013-036-069-073-074-010000-
CENTRAL EAST TENNESSEE

CITY           SKY/WX    TMP DP  RH WIND       PRES   REMARKS
KNOXVILLE      RAIN      67  61  81 E7        29.95S
OAK RIDGE      LGT RAIN  65  63  93 CALM      29.96F
GATLINBURG     PTCLDY    64  61  88 CALM      29.95F
$$

TNZ083-085-099-010000-
SOUTHEAST TENNESSEE

CITY           SKY/WX    TMP DP  RH WIND       PRES   REMARKS
CHATTANOOGA    CLOUDY    75  67  76 CALM      29.90R
$$

SKY/WX REPORTED AS FAIR MEANS FEW OR NO CLOUDS BELOW
12 THOUSAND FEET.





USA.gov is the U.S. government's official web portal to all federal, state and local government web resources and services.